Preview of NWS' New Version of Forecast
This preview is not operational and should not be used for support decisions.

Regional Weather Roundup (RWR)

Issued by National Weather Service (NWS)

                            
000
ASUS42 KTBW 240115
RWRFL 
FLORIDA REGIONAL WEATHER ROUNDUP
NATIONAL WEATHER SERVICE TAMPA BAY RUSKIN FL
900 PM EDT SUN JUN 23 2019

NOTE: "FAIR" INDICATES FEW OR NO CLOUDS BELOW 12,000 FEET WITH NO
SIGNIFICANT WEATHER AND/OR OBSTRUCTIONS TO VISIBILITY.

FLZ001>010-012>015-112-114-115-240200-
PANHANDLE FLORIDA
  
CITY           SKY/WX    TMP DP  RH WIND       PRES   REMARKS
PENSACOLA      MOCLDY    85  80  85 S10       29.99S HX  99           
PENSACOLA NAS  MOCLDY    84  79  85 S7        29.98S HX  96           
CRESTVIEW      FAIR      83  72  69 VRB5      30.01S                  
VALPARAISO     FAIR      84  75  73 S7        29.99F                  
MARY ESTHER    PTCLDY    84  76  78 S6        29.99S                  
TRI COUNTY     FAIR      83  73  72 S6        30.01S                  
PANAMA CITY    FAIR      83  74  74 S7        30.01R                  
TYNDALL AFB    FAIR      84  74  72 SW6       30.01S                  
APALACHICOLA   FAIR      84  73  69 SW8       30.03R                  

STATION/POSITION SKY/WX   TEMP    WIND        PRES    WAVE   SWELL
                          AIR SEA DIR/SP/G            HT/PER HT/PER
                          (F)     (DEG/KT/KT) (MB)    (FT/S) (FT/S)
PANAMA CITY BEAC           85 86  200/ 10/ 12 1016.9R
TOWER C          NOT AVBL

$$
FLZ011-016>038-118-127-128-134-139-239-240200-
NORTH FLORIDA
  
CITY           SKY/WX    TMP DP  RH WIND       PRES   REMARKS
MARIANNA       FAIR      85  67  54 SW6       30.00R                  
TALLAHASSEE    MOCLDY    79  74  84 E6        30.02S                  
PERRY          FAIR      83  78  85 CALM      30.04S                  
LIVE OAK       CLEAR     86  75  70 S6        30.02R HX  95           
CROSS CITY     FAIR      82  75  78 W5        30.04R                  
LAKE CITY      FAIR      84  72  65 NW6       30.02S                  
GAINESVILLE    FAIR      84  75  74 W9        30.04R                  
PALATKA        FAIR      84  75  74 CALM      30.00F                  
MAYPORT NAS    MOCLDY    81  71  71 N10       30.00F THUNDER          
JACKSONVILLE   LGT RAIN  75  71  87 N10       30.00F                  
JAX NAS        TSTM      79  70  74 S8        30.03R                  
JAX CECIL      PTCLDY    82  68  61 N6        30.02R                  
FERNANDINA BEA FAIR      75  73  93 N5        30.00F                  
ST AUGUSTINE   FAIR      84  75  74 NW20G28   30.03R THUNDER          
PALM COAST     FAIR      81  74  79 CALM      30.00S                  

STATION/POSITION SKY/WX   TEMP    WIND        PRES    WAVE   SWELL
                          AIR SEA DIR/SP/G            HT/PER HT/PER
                          (F)     (DEG/KT/KT) (MB)    (FT/S) (FT/S)
SHELL POINT      NOT AVBL
KEATON BEACH               85     250/ 13/ 15 1017.0R
CEDAR KEY                  85     260/  8/ 10 1016.9F
FERNANDINA                 80 86  210/  5/ 12 1018.1
30.7N   81.3W                 83                N/A     1/10
MAYPORT                    82 84  350/ 16/ 22 1017.7
ST AUGUSTINE               85 82  200/  6/  6 1016.1R

$$
FLZ040-043>046-052-053-057-058-063-144-240200-
INTERIOR CENTRAL FLORIDA
  
CITY           SKY/WX    TMP DP  RH WIND       PRES   REMARKS
OCALA          FAIR      84  72  67 W3        30.04R                  
LEESBURG       FAIR      85  71  63 W7        30.03R                  
SANFORD        FAIR      82  74  76 S5        30.02R                  
ORLANDO EXEC   FAIR      86  67  52 CALM      30.02S                  
ORLANDO INTL   MOCLDY    82  71  69 SE5       30.03R                  
KISSIMMEE      FAIR      86  74  67 W3        30.03R                  
WINTER HAVEN   FAIR      87  70  56 NW6       30.04R                  
LAKELAND       CLEAR     84  72  65 W6        30.03S                  
BARTOW           N/A     88  70  55 W7        30.02R                  
SEBRING        FAIR      88  73  61 E5        30.02R HX  95           
OKEECHOBEE     FAIR      82  73  74 SE5       30.02R                  

$$
FLZ041-047-054-059-064-141-147-240200-
EAST CENTRAL FLORIDA
  
CITY           SKY/WX    TMP DP  RH WIND       PRES   REMARKS
DAYTONA BEACH  FAIR      78  74  87 CALM      30.01S                  
DELAND         FAIR      82  70  65 S5        30.01S                  
NEW SMYRNA BEA CLEAR     77  73  88 CALM      30.02S                  
JFK SPACE CTR  FAIR      77  65  65 S5        30.01S                  
TITUSVILLE     PTCLDY    79  75  89 CALM      30.02                   
CAPE CANAVERAL FAIR      76  43  30 CALM      30.01R                  
PATRICK AFB    FAIR      79  77  96 SE5       30.02S                  
MELBOURNE      FAIR      83  70  64 SE5       30.02S                  
VERO BEACH     FAIR      83  76  79 SE6       30.03S                  
FT PIERCE      FAIR      82  75  79 E5        30.03R                  
STUART         CLEAR     84  75  74 CALM      30.04R                  

STATION/POSITION SKY/WX   TEMP    WIND        PRES    WAVE   SWELL
                          AIR SEA DIR/SP/G            HT/PER HT/PER
                          (F)     (DEG/KT/KT) (MB)    (FT/S) (FT/S)
TRIDENT PIER               76 76  140/  5/  5 1017.7
28.4N   80.5W                 76                N/A     1/11
27.5N   80.2W                 83                N/A     1/10

$$
FLZ050-056-061-142-242-148-248-149-249-151-251-155-255-
160-260-240200-
WEST CENTRAL FLORIDA
  
CITY           SKY/WX    TMP DP  RH WIND       PRES   REMARKS
CRYSTAL RIVER  FAIR     N/A N/A N/A W3        30.04R                  
INVERNESS      FAIR      81  77  89 CALM      30.04R                  
BROOKSVILLE    FAIR      80  73  79 W7        30.05R                  
CLEARWATER AIR FAIR      82  72  69 NW3       30.04S                  
ST PETE CLEARW FAIR      82  74  76 W7        30.03F                  
TAMPA INTL     FAIR      85  74  69 NW6       30.04S                  
PLANT CITY       N/A    N/A N/A N/A MISG        N/A                   
MACDILL AFB    FAIR      84  74  71 NW7       30.03S                  
PETER O KNIGHT CLOUDY    86  77  74 W6        30.04R HX  97           
ST PETERSBURG  FAIR      86  74  67 NW7       30.02S                  
SARASOTA       FAIR      83  75  77 NW8       30.01F                  
VENICE         FAIR      84  77  79 W8        30.04S                  

STATION/POSITION SKY/WX   TEMP    WIND        PRES    WAVE   SWELL
                          AIR SEA DIR/SP/G            HT/PER HT/PER
                          (F)     (DEG/KT/KT) (MB)    (FT/S) (FT/S)
27.3N   84.2W                 87                N/A     1/ 8
CLEARWATER BEACH           84 89  290/  7/  8 1017.4S
MIDDLE TAMPA BAY           85     320/  9/ 10 1017.1F
VENICE                     85 86  290/  9/ 11 1017.1F

$$
FLZ066-069-070-075>078-162-262-165-265-240200-
SOUTHWEST FLORIDA AND KEYS
  
CITY           SKY/WX    TMP DP  RH WIND       PRES   REMARKS
PUNTA GORDA    FAIR      85  75  72 W6        30.04S                  
FT MYERS       FAIR      86  70  58 W8        30.03R                  
SOUTHWEST INTL FAIR      86  74  67 W3        30.04R                  
NAPLES         FAIR      87  77  72 W5        30.04R HX  99           
IMMOKALEE      FAIR      86  73  66 W3        30.01S                  
MARATHON       FAIR      86  75  69 E6        30.05R HX  95           
KEY WEST NAS   FAIR      86  75  69 SE5       30.04R HX  95           
KEY WEST INTL  FAIR      85  76  74 SE5       30.04S                  

STATION/POSITION SKY/WX   TEMP    WIND        PRES    WAVE   SWELL
                          AIR SEA DIR/SP/G            HT/PER HT/PER
                          (F)     (DEG/KT/KT) (MB)    (FT/S) (FT/S)
NAPLES                     89 92              1017.2R
DRY TORTUGAS     NOT AVBL

$$
FLZ067-068-071>074-168-172>174-240200-
SOUTHEAST FLORIDA 
  
CITY           SKY/WX    TMP DP  RH WIND       PRES   REMARKS
W PALM BEACH   FAIR      86  75  69 S9        30.04R HX  95           
BOCA RATON     CLEAR     84  75  74 SE5       30.04R                  
FT LAUDER-EXEC FAIR      85  76  74 S8        30.04R                  
FT LAUDERDALE  FAIR      86  76  71 S7        30.04R HX  96           
POMPANO BEACH  FAIR      86  76  71 S7        30.04R HX  96           
PEMBROKE PINES FAIR      87  75  67 SE9       30.05S HX  96           
OPA LOCKA      FAIR      86  76  71 S9        30.05S HX  96           
MIAMI          MOCLDY    86  75  69 S7        30.04F HX  95           
WEST KENDALL   FAIR      82  75  79 S6        30.05S                  
HOMESTEAD      FAIR      82  72  69 SW3       30.04F                  

STATION/POSITION SKY/WX   TEMP    WIND        PRES    WAVE   SWELL
                          AIR SEA DIR/SP/G            HT/PER HT/PER
                          (F)     (DEG/KT/KT) (MB)    (FT/S) (FT/S)
PORT EVERGLADES            86     140/  6/  9 1017.3
VIRGINIA KEY               86 91  160/  5/  6 1017.0F
LAKE WORTH                 85 85  170/ 10/ 11 1018.2R
FOWEY ROCKS                85 85  180/  7/  8 1017.8F
SETTLEMENT POINT           85     200/  3/  4 1017.4R

$$